Torna al catalogo

FENGYUN 1C DEB

AttivoSSO
NORAD 30064·DEBRIS·🇨🇳 China

Lanciato May 10, 1999 da Taiyuan Satellite Launch Center

Loading…

Prossimi Passaggi (prossime 24 ore)

TLE

AggiornatoSource: Space-Track

Epoca: Sep 14, 2026, 11:55 UTC

1 30064U 99025PR  26257.49714674  .00000169  00000-0  10781-3 0  9998
2 30064  98.6584 265.1819 0066362  44.1193 108.4181 14.14437880 14033

Traccia FENGYUN 1C DEB in tempo reale con AllMySat

Download on the App Store